Location: Newark
(44.6394°N, 22.2943°E)
Time: 16:57:32
(UTC+00:00)

ISS - Visible Passes

Search period start: 15 April 2024 00:00
Search period end: 25 April 2024 00:00
Orbit: 413 x 419 km, 51.6° (Epoch: 15 April)

Date Brightness Start Highest point End Pass type
(mag) Time Alt. Az. Time Alt. Az. Time Alt. Az.
19 Apr -0.9 02:51:02 10° SSE 02:52:15 12° SE 02:53:29 10° ESE visible
21 Apr -2.3 02:51:14 10° SSW 02:54:14 30° SE 02:57:13 10° ENE visible
22 Apr -1.7 02:05:44 13° S 02:07:32 19° SE 02:10:02 10° E visible
23 Apr -1.2 01:21:05 12° SE 01:21:10 12° SE 01:22:37 10° ESE visible
23 Apr -3.7 02:54:14 10° SW 02:57:34 83° SSE 03:00:56 10° ENE visible
24 Apr -3.3 02:09:40 25° SSW 02:11:21 53° SE 02:14:37 10° ENE visible
